Date,TemperatureHighF,TemperatureAvgF,TemperatureLowF,DewpointHighF,DewpointAvgF,DewpointLowF,HumidityHigh,HumidityAvg,HumidityLow,PressureMaxIn,PressureMinIn,WindSpeedMaxMPH,WindSpeedAvgMPH,GustSpeedMaxMPH,PrecipitationSumIn
2012-1-1,72,61,53,5,1,-2,11,9,7,0.00,40.00,5,3,9,0.00
2012-1-2,70,60,55,20,16,11,18,18,14,0.00,40.00,6,3,7,0.00
2012-1-3,71,60,55,21,15,5,19,17,11,0.00,40.00,5,3,10,0.00
2012-1-4,70,63,57,15,13,8,18,14,11,0.00,40.00,7,5,14,0.00
2012-1-5,70,60,51,19,15,12,21,17,13,0.00,40.00,6,4,11,0.00
2012-1-6,69,58,50,20,15,11,24,19,12,0.00,40.00,6,3,13,0.00
2012-1-7,62,53,41,19,16,12,40,24,16,0.00,40.00,20,6,46,0.00
2012-1-8,51,44,38,20,14,7,43,30,18,0.00,40.00,25,17,46,0.00
2012-1-9,60,50,45,20,15,12,29,25,16,0.00,40.00,14,5,28,0.00
2012-1-10,61,51,44,21,18,16,38,27,19,0.00,40.00,6,3,11,0.00
2012-1-11,60,51,44,23,16,4,38,26,15,0.00,40.00,18,9,32,0.00
2012-1-12,56,53,45,7,4,0,16,14,12,0.00,40.00,14,11,25,0.00
2012-1-13,61,56,47,-3,-6,-13,11,8,6,0.00,40.00,8,4,15,0.00
2012-1-14,67,59,48,1,-6,-17,12,7,5,0.00,40.00,5,2,8,0.00
2012-1-15,58,52,46,17,7,-6,29,17,8,0.00,40.00,11,6,23,0.00
2012-1-16,54,48,39,32,23,8,66,39,22,0.00,40.00,15,7,31,0.00
2012-1-17,54,45,38,27,15,11,43,29,22,0.00,40.00,7,3,14,0.00
2012-1-18,58,51,39,23,17,10,31,26,19,0.00,40.00,8,4,12,0.00
2012-1-19,64,55,44,19,14,9,27,20,15,0.00,40.00,7,4,15,0.00
2012-1-20,65,53,45,22,16,8,30,24,18,0.00,40.00,6,1,12,0.00
2012-1-21,57,51,44,37,24,15,56,36,22,0.00,40.00,16,8,57,0.00
2012-1-22,53,47,39,17,14,9,33,26,21,0.00,40.00,10,3,38,0.00
2012-1-23,50,44,37,36,22,10,89,47,26,0.00,40.00,10,4,25,0.03
2012-1-24,52,46,37,35,27,17,82,49,31,0.00,40.00,19,13,35,0.03
2012-1-25,62,57,48,27,23,6,38,27,17,0.00,40.00,23,13,40,0.00
2012-1-26,72,64,54,30,28,21,34,27,21,0.00,40.00,10,3,16,0.00
2012-1-27,58,53,49,33,22,7,46,31,17,0.00,40.00,22,14,38,0.00
2012-1-28,60,56,45,6,2,-5,19,11,8,0.00,40.00,18,12,29,0.00
2012-1-29,62,58,49,3,-1,-10,10,9,6,0.00,40.00,11,3,17,0.00
2012-1-30,63,58,47,10,6,1,20,12,11,0.00,40.00,9,4,19,0.00
2012-1-31,67,56,48,21,12,5,26,18,11,0.00,40.00,6,3,14,0.00
2012-2-1,62,58,50,19,14,11,28,18,13,0.00,40.00,11,6,23,0.00
2012-2-2,54,49,42,20,16,12,37,28,22,0.00,40.00,15,10,35,0.00
2012-2-3,56,48,41,21,18,16,38,31,25,0.00,40.00,18,12,34,0.00
2012-2-4,59,51,42,23,19,16,38,29,22,0.00,40.00,13,9,25,0.00
2012-2-5,59,52,44,22,19,16,37,27,22,0.00,40.00,13,8,22,0.00
2012-2-6,61,53,46,18,13,10,31,21,16,0.00,40.00,11,7,18,0.00
2012-2-7,58,52,45,16,12,7,25,20,18,0.00,40.00,6,4,11,0.00
2012-2-8,65,60,51,19,17,12,23,19,16,0.00,40.00,14,9,26,0.00
2012-2-9,68,64,56,23,20,14,23,18,12,0.00,40.00,11,8,21,0.00
2012-2-10,71,65,56,23,21,18,23,18,16,0.00,40.00,7,4,13,0.00
2012-2-11,66,59,48,28,21,15,43,24,14,0.00,40.00,13,6,26,0.00
2012-2-12,59,51,40,32,29,23,59,43,32,0.00,40.00,9,3,20,0.00
2012-2-13,53,47,40,34,30,21,62,51,40,0.00,40.00,22,8,36,0.07
2012-2-14,50,40,34,33,27,20,86,60,44,0.00,40.00,10,3,22,0.07
2012-2-15,49,40,36,39,31,25,99,70,48,0.00,40.00,17,5,34,0.11
2012-2-16,57,46,35,35,30,24,98,58,33,0.00,40.00,21,11,38,0.04
2012-2-17,59,52,45,26,19,8,41,28,13,0.00,40.00,21,12,36,0.02
2012-2-18,60,55,50,31,18,12,46,24,18,0.00,40.00,13,8,23,0.00
2012-2-19,56,50,41,32,28,17,62,44,24,0.00,40.00,10,6,23,0.00
2012-2-20,58,50,41,15,11,7,27,21,14,0.00,40.00,8,4,14,0.00
2012-2-21,63,55,44,20,14,8,26,20,14,0.00,40.00,12,7,22,0.00
2012-2-22,69,63,55,28,24,18,28,22,19,0.00,40.00,15,7,27,0.00
2012-2-23,70,62,54,25,21,11,28,20,16,0.00,40.00,13,9,27,0.00
2012-2-24,65,58,46,12,7,3,21,14,10,0.00,40.00,15,8,24,0.00
2012-2-25,69,62,49,16,10,3,19,13,10,0.00,40.00,10,4,17,0.00
2012-2-26,62,54,48,10,-2,-13,16,10,6,0.00,40.00,16,8,27,0.00
2012-2-27,58,52,42,30,21,0,57,31,13,0.00,40.00,15,10,33,0.00
2012-2-28,50,41,34,34,27,22,99,60,35,0.00,40.00,11,6,29,0.16
2012-2-29,55,46,38,24,20,17,51,37,25,0.00,40.00,13,6,26,0.01
2012-3-1,60,50,42,29,22,12,56,35,17,0.00,40.00,12,7,28,0.00
2012-3-2,51,43,34,16,2,-4,32,18,11,0.00,40.00,20,12,37,0.00
2012-3-3,60,56,43,14,10,-3,20,15,13,0.00,40.00,17,12,33,0.00
2012-3-4,72,68,54,18,15,9,21,13,11,0.00,40.00,13,10,20,0.00
2012-3-5,73,65,58,13,8,-1,15,11,8,0.00,40.00,7,5,14,0.00
2012-3-6,69,57,38,26,13,-1,62,18,6,0.00,40.00,20,10,54,0.00
2012-3-7,49,42,32,31,16,9,89,39,21,0.00,40.00,12,8,30,0.00
2012-3-8,57,50,41,16,10,7,31,20,15,0.00,40.00,26,18,45,0.00
2012-3-9,69,63,51,15,9,-7,22,13,6,0.00,40.00,16,9,22,0.00
2012-3-10,66,59,52,17,11,-100,20,16,10,0.00,40.00,9,5,17,0.00
2012-3-11,68,59,50,19,11,-4,27,16,7,0.00,40.00,12,6,24,0.00
2012-3-12,69,61,50,17,10,-7,25,14,6,0.00,40.00,12,7,22,0.00
2012-3-13,70,62,53,22,12,0,21,14,9,0.00,40.00,13,8,25,0.00
2012-3-14,70,61,50,26,20,14,33,21,13,0.00,40.00,10,4,20,0.00
2012-3-15,73,65,53,22,19,16,24,18,13,0.00,40.00,9,4,18,0.00
2012-3-16,71,64,54,35,25,18,36,23,18,0.00,40.00,14,6,24,0.00
2012-3-17,62,55,41,46,34,25,99,49,26,0.00,40.00,22,12,46,0.49
2012-3-18,44,38,33,41,29,22,99,70,45,0.00,40.00,14,8,31,0.49
2012-3-19,51,40,33,31,25,20,92,58,30,0.00,40.00,7,4,20,0.00
2012-3-20,59,49,37,26,17,-100,52,31,19,0.00,40.00,10,4,21,0.00
2012-3-21,70,65,47,31,25,16,34,22,19,0.00,40.00,9,5,18,0.00
2012-3-22,75,70,56,29,23,15,29,18,13,0.00,40.00,9,6,18,0.00
2012-3-23,73,66,57,29,25,21,33,22,17,0.00,40.00,12,8,26,0.00
2012-3-24,72,65,57,31,26,20,32,23,16,0.00,40.00,10,5,22,0.00
2012-3-25,68,62,49,34,26,20,55,26,21,0.00,40.00,20,10,40,0.00
2012-3-26,62,52,42,34,24,19,55,35,19,0.00,40.00,13,6,34,0.00
2012-3-27,68,59,46,24,20,16,38,23,15,0.00,40.00,8,4,18,0.00
2012-3-28,72,61,52,23,17,9,28,19,9,0.00,40.00,9,3,20,0.00
2012-3-29,73,64,52,29,25,14,36,23,16,0.00,40.00,11,4,19,0.00
2012-3-30,78,69,57,30,27,24,31,21,16,0.00,40.00,8,4,18,0.00
2012-3-31,78,69,60,35,28,19,35,22,14,0.00,40.00,17,9,39,0.00
2012-4-1,62,54,45,35,19,8,60,27,13,0.00,40.00,14,9,32,0.00
2012-4-2,59,52,45,18,8,2,29,18,10,0.00,40.00,17,12,35,0.00
2012-4-3,71,61,49,16,14,11,22,16,11,0.00,40.00,19,6,30,0.00
2012-4-4,76,66,55,20,15,8,18,14,10,0.00,40.00,13,6,26,0.00
2012-4-5,69,62,52,24,17,9,25,18,10,0.00,40.00,14,8,28,0.00
2012-4-6,64,53,42,13,0,-14,21,12,4,0.00,40.00,14,8,31,0.00
2012-4-7,77,68,52,2,-3,-15,7,6,4,0.00,40.00,9,5,21,0.00
2012-4-8,78,70,58,5,0,-4,8,6,4,0.00,40.00,9,4,18,0.00
2012-4-9,81,73,59,10,6,2,13,7,5,0.00,40.00,10,6,21,0.00
2012-4-10,80,72,63,25,16,7,18,12,8,0.00,40.00,16,9,32,0.00
2012-4-11,66,58,51,39,31,21,50,36,18,0.00,40.00,17,12,33,0.07
2012-4-12,63,53,42,27,19,5,52,30,10,0.00,40.00,14,9,30,0.07
2012-4-13,60,52,36,43,28,17,99,46,19,0.00,40.00,18,8,35,1.05
2012-4-14,46,39,34,38,35,32,99,88,66,0.00,40.00,12,7,29,1.69
2012-4-15,65,53,40,41,35,31,81,53,30,0.00,40.00,8,3,19,0.02
2012-4-16,73,63,49,37,32,24,57,35,16,0.00,40.00,6,3,15,0.00
2012-4-17,80,72,57,32,26,21,34,18,12,0.00,40.00,8,4,18,0.00
2012-4-18,82,74,61,28,22,12,25,15,7,0.00,40.00,10,5,25,0.00
2012-4-19,86,74,62,34,28,20,30,18,13,0.00,40.00,9,4,20,0.00
2012-4-20,88,78,68,32,30,26,24,17,12,0.00,40.00,13,6,22,0.00
2012-4-21,91,82,69,33,28,23,23,14,9,0.00,40.00,10,4,19,0.00
2012-4-22,92,84,72,29,24,14,20,11,6,0.00,40.00,10,4,22,0.00
2012-4-23,91,81,70,34,26,21,21,14,9,0.00,40.00,15,6,27,0.00
2012-4-24,82,71,59,37,30,24,33,23,13,0.00,40.00,9,4,19,0.00
2012-4-25,83,74,68,34,29,17,23,19,12,0.00,40.00,11,4,24,0.00
2012-4-26,72,61,49,49,38,18,99,46,13,0.00,40.00,15,9,30,0.02
2012-4-27,78,65,51,41,35,19,66,37,16,0.00,40.00,8,4,19,0.02
2012-4-28,78,72,62,23,19,5,18,13,8,0.00,40.00,16,8,26,0.00
2012-4-29,81,73,63,23,19,12,18,13,9,0.00,40.00,10,6,23,0.00
2012-4-30,83,74,62,30,22,16,19,14,9,0.00,40.00,11,6,27,0.00
2012-5-1,80,71,61,34,31,27,31,23,17,0.00,40.00,14,8,28,0.00
2012-5-2,76,69,59,36,32,28,35,27,19,0.00,40.00,14,7,26,0.00
2012-5-3,79,70,61,42,32,23,49,26,14,0.00,40.00,13,8,26,0.00
2012-5-4,80,71,61,39,29,18,41,22,10,0.00,40.00,14,7,29,0.00
2012-5-5,82,73,61,23,16,4,19,12,7,0.00,40.00,11,7,24,0.00
2012-5-6,79,70,59,10,6,-1,12,8,6,0.00,40.00,29,15,42,0.00
2012-5-7,75,67,60,18,5,-7,17,9,4,0.00,40.00,20,11,35,0.00
2012-5-8,84,73,61,23,15,4,20,12,5,0.00,40.00,11,5,23,0.00
2012-5-9,90,79,67,27,20,15,21,12,7,0.00,40.00,12,6,20,0.00
2012-5-10,86,76,64,37,28,21,31,18,10,0.00,40.00,10,5,21,0.00
2012-5-11,87,77,64,26,22,18,21,13,8,0.00,40.00,10,4,23,0.00
2012-5-12,90,79,68,23,19,10,17,11,5,0.00,40.00,9,3,17,0.00
2012-5-13,94,81,69,27,14,-2,16,9,4,0.00,40.00,8,3,23,0.00
2012-5-14,94,85,71,7,4,-2,6,4,3,0.00,40.00,12,6,21,0.00
2012-5-15,92,82,76,16,11,-3,10,7,3,0.00,40.00,17,8,38,0.00
2012-5-16,92,83,67,10,6,1,8,6,4,0.00,40.00,9,5,20,0.00
2012-5-17,92,85,73,31,20,8,16,9,6,0.00,40.00,19,11,40,0.00
2012-5-18,84,76,65,31,18,4,21,12,5,0.00,40.00,13,7,28,0.00
2012-5-19,87,77,71,29,20,11,18,12,6,0.00,40.00,10,6,24,0.00
2012-5-20,94,81,70,19,13,5,13,8,4,0.00,40.00,8,4,20,0.00
2012-5-21,96,85,73,18,13,8,11,7,5,0.00,40.00,11,5,25,0.00
2012-5-22,95,86,78,28,19,7,15,9,4,0.00,40.00,14,7,26,0.00
2012-5-23,91,81,70,31,26,12,22,14,7,0.00,40.00,10,5,23,0.00
2012-5-24,87,78,70,41,28,12,31,17,7,0.00,40.00,18,9,35,0.00
2012-5-25,75,70,56,46,40,27,47,35,20,0.00,40.00,22,15,41,0.00
2012-5-26,66,56,46,29,23,17,42,28,19,0.00,40.00,15,9,35,0.00
2012-5-27,77,66,52,27,20,10,33,19,9,0.00,40.00,10,4,30,0.00
2012-5-28,85,72,62,18,13,6,17,11,6,0.00,40.00,7,4,18,0.00
2012-5-29,88,77,67,16,12,4,13,8,5,0.00,40.00,10,4,23,0.00
2012-5-30,93,80,68,22,16,3,15,9,5,0.00,40.00,8,4,17,0.00
2012-5-31,97,89,79,17,12,6,7,6,4,0.00,40.00,12,8,24,0.00
2012-6-1,102,92,82,18,15,10,8,6,4,0.00,40.00,9,6,21,0.00
2012-6-2,95,87,76,22,18,12,13,8,5,0.00,40.00,12,5,24,0.00
2012-6-3,93,83,72,28,23,11,17,11,6,0.00,40.00,11,5,24,0.00
2012-6-4,90,82,71,38,31,22,24,17,10,0.00,40.00,13,8,27,0.00
2012-6-5,81,72,65,40,24,-3,38,20,5,0.00,40.00,14,9,28,0.00
2012-6-6,84,76,67,16,11,-3,11,8,5,0.00,40.00,15,10,28,0.00
2012-6-7,89,81,73,13,10,6,9,7,5,0.00,40.00,9,6,22,0.00
2012-6-8,90,83,70,31,23,10,17,11,7,0.00,40.00,14,8,29,0.00
2012-6-9,88,81,69,36,29,22,24,16,10,0.00,40.00,13,8,29,0.00
2012-6-10,86,76,64,29,7,-2,16,8,4,0.00,40.00,23,13,39,0.00
2012-6-11,93,81,74,9,4,0,6,5,4,0.00,40.00,8,4,19,0.00
2012-6-12,94,86,73,15,10,2,7,6,4,0.00,40.00,8,5,22,0.00
2012-6-13,96,86,75,18,15,11,11,7,5,0.00,40.00,10,5,20,0.00
2012-6-14,93,83,73,25,19,14,14,10,6,0.00,40.00,11,5,28,0.00
2012-6-15,91,80,72,35,26,13,26,15,6,0.00,40.00,10,5,25,0.00
2012-6-16,95,83,73,25,20,13,12,10,7,0.00,40.00,10,5,18,0.00
2012-6-17,99,89,75,25,20,10,10,8,6,0.00,40.00,10,5,23,0.00
2012-6-18,97,90,79,24,16,3,12,7,4,0.00,40.00,13,9,32,0.00
2012-6-19,99,84,74,26,22,12,16,11,5,0.00,40.00,8,5,30,0.00
2012-6-20,102,91,77,15,12,9,9,6,4,0.00,40.00,6,4,18,0.00
2012-6-21,96,88,77,30,18,2,14,8,3,0.00,40.00,15,7,28,0.00
2012-6-22,93,86,77,40,28,4,27,14,5,0.00,40.00,15,9,30,0.00
2012-6-23,93,82,71,24,16,5,16,9,5,0.00,40.00,14,7,32,0.00
2012-6-24,95,84,74,49,27,6,28,14,5,0.00,40.00,10,5,23,0.00
2012-6-25,95,85,76,45,27,10,26,13,6,0.00,40.00,13,6,24,0.00
2012-6-26,95,85,74,25,20,13,15,9,6,0.00,40.00,11,7,26,0.00
2012-6-27,98,92,79,43,30,1,20,12,4,0.00,40.00,12,7,24,0.00
2012-6-28,99,90,78,43,39,31,22,17,13,0.00,40.00,12,7,26,0.00
2012-6-29,97,90,80,41,31,8,16,12,7,0.00,40.00,14,6,36,0.00
2012-6-30,96,89,79,17,11,3,8,6,3,0.00,40.00,10,5,23,0.00
2012-7-1,97,90,78,23,14,5,9,6,4,0.00,40.00,11,6,24,0.00
2012-7-2,97,89,77,46,28,10,26,12,7,0.00,40.00,14,7,26,0.00
2012-7-3,91,84,76,52,45,31,42,27,12,0.00,40.00,12,7,23,0.00
2012-7-4,81,72,65,66,55,41,98,59,26,0.00,40.00,12,5,24,0.05
2012-7-5,90,78,64,65,55,41,99,52,23,0.00,40.00,8,4,20,0.02
2012-7-6,96,86,75,43,38,19,30,19,10,0.00,40.00,9,5,20,0.00
2012-7-7,100,90,77,29,26,19,14,10,7,0.00,40.00,9,5,19,0.00
2012-7-8,103,94,79,29,25,21,13,9,6,0.00,40.00,9,5,22,0.00
2012-7-9,105,95,84,31,27,24,12,9,7,0.00,40.00,10,4,21,0.00
2012-7-10,108,97,84,34,30,25,15,10,6,0.00,40.00,11,4,23,0.00
2012-7-11,100,93,86,48,43,31,22,18,10,0.00,40.00,16,6,27,0.00
2012-7-12,90,84,79,60,53,45,49,36,21,0.00,40.00,11,5,30,0.00
2012-7-13,84,77,68,68,60,52,85,56,40,0.00,40.00,11,4,24,0.19
2012-7-14,88,74,64,68,63,56,100,71,40,0.00,40.00,15,5,27,0.10
2012-7-15,88,77,65,62,57,54,76,52,37,0.00,40.00,8,3,19,0.08
2012-7-16,90,82,73,60,50,18,58,37,10,0.00,40.00,14,5,29,0.00
2012-7-17,90,79,72,32,23,8,22,14,5,0.00,40.00,13,4,28,0.00
2012-7-18,94,83,72,29,23,13,18,12,5,0.00,40.00,10,5,20,0.00
2012-7-19,98,89,79,42,34,24,22,15,10,0.00,40.00,8,3,16,0.00
2012-7-20,99,90,81,51,47,41,30,23,16,0.00,40.00,9,4,20,0.00
2012-7-21,98,89,82,57,51,44,40,28,21,0.00,40.00,10,4,38,0.00
2012-7-22,96,87,77,59,54,50,54,34,23,0.00,40.00,10,6,27,0.00
2012-7-23,97,89,78,59,56,52,53,34,23,0.00,40.00,10,5,21,0.00
2012-7-24,96,88,78,59,54,46,50,32,22,0.00,40.00,10,5,23,0.00
2012-7-25,97,90,78,47,40,33,31,18,13,0.00,40.00,12,5,24,0.00
2012-7-26,97,90,77,41,38,30,24,17,12,0.00,40.00,10,5,25,0.00
2012-7-27,98,89,78,30,24,7,17,10,6,0.00,40.00,12,6,23,0.00
2012-7-28,97,90,81,18,12,6,8,5,4,0.00,40.00,11,5,22,0.00
2012-7-29,92,84,77,57,51,10,41,32,6,0.00,40.00,8,3,21,0.00
2012-7-30,84,74,69,71,64,51,99,73,35,0.00,40.00,7,2,19,0.41
2012-7-31,85,74,69,70,65,59,90,73,44,0.00,40.00,14,3,28,0.41
2012-8-1,82,76,70,67,61,53,89,61,40,0.00,40.00,8,2,17,0.12
2012-8-2,95,89,78,58,54,52,50,31,26,0.00,40.00,7,5,17,0.00
2012-8-3,96,87,77,60,53,45,53,33,20,0.00,40.00,9,4,23,0.00
2012-8-4,98,89,79,50,45,37,36,23,15,0.00,40.00,8,4,21,0.00
2012-8-5,97,90,79,48,44,39,29,21,17,0.00,40.00,11,5,21,0.00
2012-8-6,101,91,82,50,47,44,30,22,16,0.00,40.00,7,2,20,0.00
2012-8-7,104,92,83,51,47,44,31,23,14,0.00,40.00,17,5,28,0.00
2012-8-8,106,96,83,49,44,37,28,18,10,0.00,40.00,9,4,22,0.00
2012-8-9,101,93,81,54,48,41,35,22,17,0.00,40.00,20,6,39,0.00
2012-8-10,104,95,81,47,43,33,30,17,9,0.00,40.00,9,4,18,0.00
2012-8-11,102,92,84,50,46,43,27,21,14,0.00,40.00,10,5,25,0.00
2012-8-12,104,94,84,50,46,41,28,20,12,0.00,40.00,19,6,34,0.00
2012-8-13,103,95,85,48,43,39,26,18,12,0.00,40.00,10,6,31,0.00
2012-8-14,101,92,82,49,43,34,31,19,10,0.00,40.00,14,5,26,0.00
2012-8-15,97,88,77,61,51,38,55,31,17,0.00,40.00,9,6,19,0.00
2012-8-16,92,83,74,59,58,55,58,42,32,0.00,40.00,12,5,31,0.00
2012-8-17,90,79,71,64,59,55,66,52,33,0.00,40.00,10,4,17,0.00
2012-8-18,93,83,73,69,63,56,84,54,31,0.00,40.00,9,4,19,0.00
2012-8-19,96,87,77,63,59,55,58,41,27,0.00,40.00,9,4,24,0.00
2012-8-20,97,88,78,61,59,52,52,39,25,0.00,40.00,11,5,22,0.00
2012-8-21,96,85,74,65,60,55,74,44,27,0.00,40.00,13,5,29,0.19
2012-8-22,83,74,66,66,62,58,99,67,46,0.00,40.00,23,5,37,0.48
2012-8-23,87,76,64,63,59,53,89,60,32,0.00,40.00,8,3,17,0.01
2012-8-24,93,82,72,63,57,51,69,46,26,0.00,40.00,7,3,16,0.00
2012-8-25,94,86,75,60,55,44,54,37,25,0.00,40.00,9,4,24,0.00
2012-8-26,95,87,75,53,46,40,41,25,17,0.00,40.00,8,4,24,0.00
2012-8-27,97,87,75,46,39,29,31,20,10,0.00,40.00,9,3,20,0.00
2012-8-28,100,90,81,51,41,32,29,19,11,0.00,40.00,9,4,21,0.00
2012-8-29,97,86,73,61,53,48,65,34,23,0.00,40.00,9,3,22,0.56
2012-8-30,91,83,76,61,56,52,53,40,28,0.00,40.00,14,5,27,0.50
2012-8-31,90,82,72,62,57,54,58,44,31,0.00,40.00,13,6,25,0.00
2012-9-1,92,84,75,61,53,43,58,37,20,0.00,40.00,12,6,24,0.00
2012-9-2,96,85,76,51,44,39,41,25,15,0.00,40.00,10,4,20,0.00
2012-9-3,95,86,77,56,46,39,43,26,17,0.00,40.00,10,4,24,0.00
2012-9-4,93,83,75,63,59,55,62,45,29,0.00,40.00,10,3,25,0.00
2012-9-5,93,83,73,60,57,51,58,42,27,0.00,40.00,8,3,17,0.00
2012-9-6,93,84,75,57,52,47,49,35,24,0.00,40.00,11,4,22,0.00
2012-9-7,95,81,70,69,60,48,98,51,23,0.00,40.00,13,3,38,0.20
2012-9-8,97,86,76,62,55,47,62,38,19,0.00,40.00,9,5,24,0.20
2012-9-9,93,82,72,64,59,55,71,46,30,0.00,40.00,11,3,28,0.23
2012-9-10,86,78,70,64,58,50,78,52,31,0.00,40.00,13,5,25,0.23
2012-9-11,79,70,64,67,62,58,100,78,48,0.00,40.00,18,5,29,0.23
2012-9-12,84,74,66,67,58,43,99,65,29,0.00,40.00,9,3,20,0.01
2012-9-13,93,84,72,44,31,28,30,15,10,0.00,40.00,10,7,23,0.00
2012-9-14,93,82,73,43,36,29,34,20,11,0.00,40.00,8,5,17,0.00
2012-9-15,91,83,75,36,33,30,23,17,13,0.00,40.00,8,5,16,0.00
2012-9-16,91,82,72,40,31,23,25,17,9,0.00,40.00,9,4,16,0.00
2012-9-17,92,81,71,51,42,33,44,27,15,0.00,40.00,6,3,16,0.00
2012-9-18,96,82,74,41,33,25,31,19,9,0.00,40.00,7,3,19,0.00
2012-9-19,94,85,76,33,28,24,18,13,9,0.00,40.00,8,4,19,0.00
2012-9-20,94,85,75,35,31,28,22,15,10,0.00,40.00,8,4,20,0.00
2012-9-21,94,86,75,33,29,26,20,14,9,0.00,40.00,8,4,20,0.00
2012-9-22,93,84,75,34,32,28,20,15,11,0.00,40.00,12,5,21,0.00
2012-9-23,92,83,76,37,33,28,21,16,11,0.00,40.00,10,3,23,0.00
2012-9-24,89,82,74,37,32,29,22,17,12,0.00,40.00,13,6,29,0.00
2012-9-25,87,78,66,42,37,30,27,23,17,0.00,40.00,9,5,18,0.00
2012-9-26,88,78,68,36,33,29,26,20,14,0.00,40.00,8,5,21,0.00
2012-9-27,88,78,70,34,31,28,24,18,12,0.00,40.00,8,4,17,0.00
2012-9-28,90,80,71,39,33,27,28,19,13,0.00,40.00,7,4,17,0.00
2012-9-29,91,82,73,34,29,24,21,15,11,0.00,40.00,8,4,16,0.00
2012-9-30,95,86,77,27,23,16,15,10,6,0.00,40.00,11,8,27,0.00
2012-10-1,96,84,77,25,22,13,13,10,7,0.00,40.00,11,7,22,0.00
2012-10-2,97,84,75,24,21,14,14,10,5,0.00,40.00,8,3,17,0.00
2012-10-3,94,84,74,28,22,16,15,11,8,0.00,40.00,11,5,23,0.00
2012-10-4,87,79,70,33,28,26,20,16,12,0.00,40.00,10,5,24,0.00
2012-10-5,84,75,67,31,27,23,23,17,12,0.00,40.00,9,3,16,0.00
2012-10-6,83,75,66,30,27,25,23,17,13,0.00,40.00,9,4,17,0.00
2012-10-7,85,73,65,28,25,21,23,17,10,0.00,40.00,6,3,16,0.00
2012-10-8,83,74,67,40,33,23,33,22,18,0.00,40.00,10,4,19,0.00
2012-10-9,82,73,63,53,43,35,58,35,23,0.00,40.00,10,5,25,0.00
2012-10-10,79,71,65,59,46,36,72,44,22,0.00,40.00,14,5,28,0.00
2012-10-11,65,60,54,59,52,42,100,80,52,0.00,40.00,11,4,36,0.76
2012-10-12,61,54,47,48,43,39,99,68,50,0.00,40.00,9,4,22,0.14
2012-10-13,72,60,49,46,41,27,73,52,21,0.00,40.00,13,4,20,0.03
2012-10-14,81,72,65,41,39,33,40,30,23,0.00,40.00,19,12,28,0.00
2012-10-15,84,74,67,39,36,31,33,25,16,0.00,40.00,7,4,17,0.00
2012-10-16,84,75,66,38,33,25,35,22,12,0.00,40.00,7,3,16,0.00
2012-10-17,84,74,68,37,27,-1,27,18,5,0.00,40.00,20,8,31,0.00
2012-10-18,82,75,67,16,10,-3,12,8,5,0.00,40.00,15,9,22,0.00
2012-10-19,86,76,65,22,18,7,16,11,7,0.00,40.00,7,5,14,0.00
2012-10-20,82,74,64,44,27,17,36,19,10,0.00,40.00,12,7,23,0.00
2012-10-21,74,70,64,51,45,39,48,41,33,0.00,40.00,14,10,27,0.00
2012-10-22,72,65,57,49,43,29,62,45,26,0.00,40.00,15,9,25,0.00
2012-10-23,71,63,58,39,35,29,50,36,25,0.00,40.00,10,6,21,0.00
2012-10-24,68,59,51,34,27,9,41,30,18,0.00,40.00,14,5,20,0.00
2012-10-25,70,62,53,19,15,9,20,16,9,0.00,40.00,21,9,34,0.00
2012-10-26,66,58,48,18,11,0,28,17,9,0.00,40.00,15,11,29,0.00
2012-10-27,77,66,56,12,7,-10,13,10,5,0.00,40.00,15,7,23,0.00
2012-10-28,82,68,61,19,15,10,18,13,7,0.00,40.00,5,3,13,0.00
2012-10-29,82,70,60,21,17,11,18,13,8,0.00,40.00,7,4,11,0.00
2012-10-30,82,68,61,21,17,9,18,14,7,0.00,40.00,6,4,13,0.00
2012-10-31,81,67,62,21,17,13,18,15,9,0.00,40.00,7,4,14,0.00
2012-11-1,77,68,62,20,18,15,18,15,10,0.00,40.00,9,4,21,0.00
2012-11-2,77,67,58,22,19,15,21,17,12,0.00,40.00,7,3,17,0.00
2012-11-3,78,70,58,20,16,7,20,13,9,0.00,40.00,14,7,22,0.00
2012-11-4,82,73,63,25,17,10,17,12,9,0.00,40.00,15,8,26,0.00
2012-11-5,81,74,67,25,23,21,18,15,11,0.00,40.00,15,8,21,0.00
2012-11-6,84,73,66,31,27,23,23,18,11,0.00,40.00,8,5,15,0.00
2012-11-7,80,70,63,29,26,24,25,20,15,0.00,40.00,8,4,15,0.00
2012-11-8,70,65,61,45,30,24,53,28,19,0.00,40.00,16,6,34,0.00
2012-11-9,62,53,41,45,33,14,70,48,25,0.00,40.00,15,11,30,0.00
2012-11-10,52,43,34,18,15,11,45,32,21,0.00,40.00,10,6,27,0.00
2012-11-11,50,44,38,15,8,-1,33,23,15,0.00,40.00,13,8,24,0.00
2012-11-12,60,47,41,4,2,-4,21,16,8,0.00,40.00,13,5,20,0.00
2012-11-13,70,58,48,7,2,-11,14,11,6,0.00,40.00,10,3,20,0.00
2012-11-14,69,58,52,8,6,2,15,12,7,0.00,40.00,4,2,10,0.00
2012-11-15,72,60,54,12,8,1,17,12,6,0.00,40.00,7,2,13,0.00
2012-11-16,70,61,54,38,19,8,46,22,11,0.00,40.00,8,4,17,0.00
2012-11-17,66,60,54,42,39,36,59,48,36,0.00,40.00,10,5,22,0.00
2012-11-18,66,57,49,43,38,35,69,51,34,0.00,40.00,10,4,20,0.00
2012-11-19,67,57,48,39,36,33,61,47,34,0.00,40.00,6,3,13,0.00
2012-11-20,70,59,51,34,31,26,48,35,25,0.00,40.00,7,4,12,0.00
2012-11-21,70,61,52,32,27,22,39,28,20,0.00,40.00,8,4,16,0.00
2012-11-22,73,62,54,28,25,23,33,25,17,0.00,40.00,17,8,26,0.00
2012-11-23,76,64,59,24,21,17,23,19,12,0.00,40.00,8,5,15,0.00
2012-11-24,76,66,59,22,18,13,18,15,11,0.00,40.00,7,3,12,0.00
2012-11-25,73,64,57,23,20,16,25,19,13,0.00,40.00,8,4,13,0.00
2012-11-26,66,58,55,21,20,17,24,22,18,0.00,40.00,9,4,14,0.00
2012-11-27,72,62,55,22,20,16,23,20,13,0.00,40.00,7,3,13,0.00
2012-11-28,70,62,56,26,23,20,27,22,17,0.00,40.00,9,4,19,0.00
2012-11-29,66,59,52,41,34,25,57,40,27,0.00,40.00,8,4,15,0.00
2012-11-30,65,58,52,47,44,40,74,60,47,0.00,40.00,9,4,21,0.00
2012-12-1,63,57,52,47,42,37,78,59,41,0.00,40.00,10,3,19,0.00
2012-12-2,66,59,52,44,40,36,62,50,37,0.00,40.00,13,5,24,0.00
2012-12-3,67,58,51,46,42,38,80,56,36,0.00,40.00,8,3,19,0.00
2012-12-4,72,59,53,40,38,36,58,46,27,0.00,40.00,6,2,12,0.00
2012-12-5,69,62,53,38,34,29,52,37,26,0.00,40.00,8,3,16,0.00
2012-12-6,70,58,55,36,30,-100,45,37,27,0.00,40.00,11,4,18,0.00
2012-12-7,64,58,51,36,27,17,45,31,20,0.00,40.00,14,7,26,0.00
2012-12-8,65,57,49,17,16,13,26,20,14,0.00,40.00,13,4,21,0.00
2012-12-9,59,52,41,19,15,10,27,23,19,0.00,40.00,14,8,32,0.00
2012-12-10,57,49,41,21,17,10,35,28,20,0.00,40.00,11,5,23,0.00
2012-12-11,57,51,46,19,16,12,31,25,20,0.00,40.00,8,3,15,0.00
2012-12-12,57,52,47,16,14,12,27,21,18,0.00,40.00,12,6,25,0.00
2012-12-13,54,49,44,46,30,12,99,57,20,0.00,40.00,15,8,30,0.54
2012-12-14,45,41,35,45,38,31,100,88,64,0.00,40.00,13,8,26,1.43
2012-12-15,45,39,35,38,34,30,99,84,56,0.00,40.00,14,6,29,0.26
2012-12-16,48,40,33,36,33,30,99,76,53,0.00,40.00,6,2,15,0.03
2012-12-17,48,44,41,43,38,34,89,78,71,0.00,40.00,9,3,17,0.00
2012-12-18,48,44,35,46,40,23,99,87,52,0.00,40.00,14,6,33,0.46
2012-12-19,41,36,32,27,18,9,76,48,35,0.00,40.00,14,9,27,0.06
2012-12-20,51,42,32,17,12,3,39,30,22,0.00,40.00,5,1,11,0.00
2012-12-21,57,46,39,21,13,7,34,27,16,0.00,40.00,7,2,11,0.00
2012-12-22,59,51,42,21,17,10,38,26,19,0.00,40.00,8,3,15,0.00
2012-12-23,56,49,40,29,24,12,50,38,25,0.00,40.00,7,2,17,0.00
2012-12-24,55,47,40,37,28,5,63,48,22,0.00,40.00,16,6,42,0.00
2012-12-25,49,41,34,15,10,0,39,28,18,0.00,40.00,12,6,25,0.00
2012-12-26,45,38,34,30,18,5,85,49,24,0.00,40.00,6,2,18,0.00
2012-12-27,49,40,33,26,22,16,65,49,32,0.00,40.00,7,4,16,0.00
2012-12-28,50,41,35,22,18,13,57,40,30,0.00,40.00,8,4,19,0.00
2012-12-29,51,42,35,21,18,16,49,39,28,0.00,40.00,8,2,15,0.00
2012-12-30,48,39,35,24,20,18,59,47,33,0.00,40.00,9,4,19,0.00
2012-12-31,44,37,31,23,15,8,60,43,28,0.00,40.00,12,6,25,0.00
2013-1-1,44,38,32,12,9,4,42,30,23,0.00,40.00,13,8,25,0.00